Weather History for Perry, IA

Change the Weather History Date:

Saturday, August 17, 2013

  Actual Average Record
Temperature  
Mean Temperature 64 °F -  
Max Temperature 79 °F 84 °F 105 °F (1988)
Min Temperature 50 °F 60 °F 47 °F (1953)
Growing Degree Days 14 (Base 50)    
Moisture  
Dew Point 52 °F    
Average Humidity 65    
Maximum Humidity 92    
Minimum Humidity 31    
Precipitation  
Precipitation 0.00 in - - ()
Sea Level Pressure  
Sea Level Pressure 30.19 in    
Wind  
Wind Speed 2 mph (SE)    
Max Wind Speed 9 mph    
Max Gust Speed -    
Visibility 9 miles    
Events      
Averages and records for this station are not official NWS values.
T = Trace of Precipitation, MM = Missing Value Source: NWS Daily Summary

Daily Weather History Graph

Daily Weather History Graph

Search for Another Location

Airport:

Trip Planner

Search our weather history database for the weather conditions in past years. The results will help you decide how hot, cold, wet, or windy it might be!

Date:

Astronomy

Aug. 17, 2013 Rise Set
Actual Time 6:27 AM CDT 8:13 PM CDT
Civil Twilight 5:57 AM CDT 8:42 PM CDT
Nautical Twilight 5:21 AM CDT 9:19 PM CDT
Astronomical Twilight 4:42 AM CDT 9:57 PM CDT
Moon 5:30 PM CDT (8/17) 2:29 AM CDT (8/17)
Length of Visible Light 14h 45m
Length of Day
13h 46m
Waxing Gibbous, 84% of the Moon is Illuminated
Aug 17
Waxing Gibbous
Aug 20
Full
Aug 28
Last Quarter
Sep 5
New
Sep 12
First Quarter

Hourly Weather History & Observations

Time (CDT) Temp. Dew Point Humidity Pressure Visibility Wind Dir Wind Speed Gust Speed Precip Events Conditions
12:15 AM 58.3 °F 53.2 °F 83% 30.20 in 10.0 mi Calm Calm - N/A   Clear
12:35 AM 55.2 °F 52.0 °F 89% 30.20 in 10.0 mi Calm Calm - N/A   Clear
12:55 AM 54.9 °F 52.0 °F 90% 30.20 in 7.0 mi Calm Calm - N/A   Clear
1:15 AM 54.7 °F 51.8 °F 90% 30.20 in 3.0 mi Calm Calm - N/A   Clear
1:35 AM 54.1 °F 51.4 °F 91% 30.20 in 5.0 mi Calm Calm - N/A   Clear
1:55 AM 53.6 °F 50.7 °F 90% 30.20 in 4.0 mi ESE 3.5 mph - N/A   Clear
2:15 AM 54.1 °F 51.1 °F 89% 30.20 in 7.0 mi Calm Calm - N/A   Clear
2:35 AM 52.9 °F 50.2 °F 91% 30.20 in 7.0 mi Calm Calm - N/A   Clear
2:55 AM 52.2 °F 49.3 °F 90% 30.20 in 7.0 mi Calm Calm - N/A   Clear
3:15 AM 53.6 °F 50.7 °F 90% 30.20 in 10.0 mi East 3.5 mph - N/A   Clear
3:35 AM 53.4 °F 50.4 °F 89% 30.20 in 10.0 mi ESE 3.5 mph - N/A   Clear
3:55 AM 53.2 °F 50.2 °F 89% 30.21 in 10.0 mi ESE 3.5 mph - N/A   Clear
4:15 AM 51.8 °F 49.1 °F 90% 30.20 in 7.0 mi Calm Calm - N/A   Clear
4:35 AM 51.1 °F 48.4 °F 90% 30.21 in 7.0 mi Calm Calm - N/A   Clear
4:55 AM 50.9 °F 48.2 °F 90% 30.21 in 7.0 mi Calm Calm - N/A   Clear
5:15 AM 50.9 °F 48.2 °F 90% 30.21 in 5.0 mi Calm Calm - N/A   Clear
5:35 AM 50.4 °F 47.8 °F 91% 30.21 in 5.0 mi Calm Calm - N/A   Clear
5:55 AM 50.4 °F 47.7 °F 90% 30.21 in 10.0 mi Calm Calm - N/A   Clear
6:15 AM 52.0 °F 49.3 °F 90% 30.22 in 7.0 mi Calm Calm - N/A   Clear
6:35 AM 50.4 °F 47.7 °F 90% 30.22 in 7.0 mi Calm Calm - N/A   Clear
6:55 AM 50.4 °F 48.0 °F 92% 30.22 in 4.0 mi East 3.5 mph - N/A   Clear
7:15 AM 51.8 °F 49.3 °F 91% 30.23 in 5.0 mi Calm Calm - N/A   Clear
7:35 AM 55.0 °F 52.0 °F 89% 30.23 in 7.0 mi Calm Calm - N/A   Clear
7:55 AM 57.2 °F 53.4 °F 87% 30.23 in 5.0 mi Calm Calm - N/A   Clear
8:15 AM 59.4 °F 55.4 °F 87% 30.23 in 7.0 mi Calm Calm - N/A   Clear
8:35 AM 61.5 °F 55.4 °F 80% 30.23 in 10.0 mi Calm Calm - N/A   Clear
8:55 AM 63.1 °F 55.2 °F 75% 30.24 in 10.0 mi Calm Calm - N/A   Clear
9:15 AM 65.3 °F 56.5 °F 73% 30.23 in 10.0 mi Calm Calm - N/A   Clear
9:35 AM 68.0 °F 56.7 °F 67% 30.24 in 10.0 mi SE 3.5 mph - N/A   Clear
9:55 AM 70.5 °F 56.7 °F 61% 30.23 in 10.0 mi SSE 3.5 mph - N/A   Clear
10:15 AM 72.3 °F 56.3 °F 57% 30.23 in 10.0 mi SSE 3.5 mph - N/A   Clear
10:35 AM 73.4 °F 54.3 °F 51% 30.23 in 10.0 mi SSE 5.8 mph - N/A   Clear
10:55 AM 74.3 °F 53.4 °F 48% 30.22 in 10.0 mi SSE 5.8 mph - N/A   Clear
11:15 AM 75.4 °F 53.4 °F 46% 30.22 in 10.0 mi South 5.8 mph - N/A   Clear
11:35 AM 76.1 °F 51.4 °F 42% 30.22 in 10.0 mi South 6.9 mph - N/A   Clear
11:55 AM 76.5 °F 50.9 °F 41% 30.22 in 10.0 mi SSE 6.9 mph - N/A   Clear
12:15 PM 77.4 °F 52.9 °F 42% 30.21 in 10.0 mi SE 5.8 mph - N/A   Clear
12:35 PM 76.8 °F 52.7 °F 43% 30.21 in 10.0 mi SSE 5.8 mph - N/A   Scattered Clouds
12:55 PM 77.7 °F 52.2 °F 41% 30.20 in 10.0 mi SE 6.9 mph - N/A   Mostly Cloudy
1:15 PM 75.7 °F 51.3 °F 42% 30.21 in 10.0 mi SE 4.6 mph - N/A   Mostly Cloudy
1:35 PM 78.8 °F 51.3 °F 38% 30.20 in 10.0 mi South 9.2 mph - N/A   Mostly Cloudy
1:55 PM 78.6 °F 51.1 °F 38% 30.19 in 10.0 mi SSE 6.9 mph - N/A   Mostly Cloudy
2:15 PM 79.0 °F 49.1 °F 35% 30.19 in 10.0 mi SSE 6.9 mph - N/A   Scattered Clouds
2:35 PM 78.1 °F 49.5 °F 37% 30.18 in 10.0 mi SE 4.6 mph - N/A   Scattered Clouds
2:55 PM 78.3 °F 49.1 °F 36% 30.18 in 10.0 mi SE 4.6 mph - N/A   Scattered Clouds
3:15 PM 77.4 °F 49.3 °F 37% 30.18 in 10.0 mi East 5.8 mph - N/A   Mostly Cloudy
3:35 PM 79.9 °F 46.9 °F 31% 30.17 in 10.0 mi SSE 5.8 mph - N/A   Mostly Cloudy
3:55 PM 79.3 °F 47.7 °F 33% 30.17 in 10.0 mi SE 8.1 mph - N/A   Scattered Clouds
4:15 PM 79.7 °F 47.3 °F 32% 30.16 in 10.0 mi South 8.1 mph - N/A   Scattered Clouds
4:35 PM 79.9 °F 47.5 °F 32% 30.16 in 10.0 mi SE 6.9 mph - N/A   Scattered Clouds
4:55 PM 79.7 °F 48.4 °F 33% 30.16 in 10.0 mi SE 6.9 mph - N/A   Scattered Clouds
5:15 PM 79.5 °F 47.5 °F 32% 30.15 in 10.0 mi South 4.6 mph - N/A   Scattered Clouds
5:35 PM 79.7 °F 49.6 °F 35% 30.15 in 10.0 mi SSE 6.9 mph - N/A   Scattered Clouds
5:55 PM 79.0 °F 48.9 °F 35% 30.14 in 10.0 mi SSE 5.8 mph - N/A   Scattered Clouds
6:15 PM 78.4 °F 48.9 °F 35% 30.14 in 10.0 mi SSE 5.8 mph - N/A   Clear
6:35 PM 77.9 °F 49.3 °F 37% 30.14 in 10.0 mi SSE 4.6 mph - N/A   Clear
6:55 PM 76.6 °F 53.4 °F 44% 30.14 in 10.0 mi SSE 3.5 mph - N/A   Clear
7:15 PM 75.2 °F 54.7 °F 49% 30.14 in 10.0 mi SSE 4.6 mph - N/A   Clear
7:35 PM 73.4 °F 56.3 °F 55% 30.14 in 10.0 mi SSE 3.5 mph - N/A   Clear
7:55 PM 70.9 °F 57.6 °F 63% 30.14 in 10.0 mi Calm Calm - N/A   Clear
8:15 PM 70.0 °F 57.0 °F 63% 30.14 in 10.0 mi South 3.5 mph - N/A   Clear
8:35 PM 67.6 °F 57.0 °F 69% 30.13 in 10.0 mi South 3.5 mph - N/A   Clear
8:55 PM 67.1 °F 55.9 °F 67% 30.14 in 10.0 mi South 4.6 mph - N/A   Clear
9:15 PM 65.7 °F 55.6 °F 70% 30.14 in 10.0 mi South 4.6 mph - N/A   Clear
9:35 PM 64.2 °F 55.0 °F 72% 30.15 in 10.0 mi Calm Calm - N/A   Clear
9:55 PM 61.3 °F 55.2 °F 80% 30.15 in 10.0 mi Calm Calm - N/A   Clear
10:15 PM 61.0 °F 54.9 °F 80% 30.15 in 10.0 mi East 3.5 mph - N/A   Clear
10:35 PM 62.2 °F 55.4 °F 78% 30.15 in 10.0 mi East 4.6 mph - N/A   Clear
10:55 PM 62.6 °F 54.9 °F 76% 30.15 in 10.0 mi ESE 3.5 mph - N/A   Clear
11:15 PM 61.5 °F 54.9 °F 79% 30.15 in 10.0 mi East 4.6 mph - N/A   Clear
11:35 PM 61.5 °F 54.7 °F 78% 30.15 in 10.0 mi ESE 3.5 mph - N/A   Clear
11:55 PM 61.2 °F 54.7 °F 79% 30.15 in 7.0 mi ESE 4.6 mph - N/A   Clear